Location: Newark
(44.5208°N, 2.4294°E)
Time: 00:44:50
(UTC+00:00)

N. Korean satellite - Pass Details

Date: 19 October 2019
Orbit: 456 x 506 km, 97.2° (Epoch: 16 November)

Event Time Altitude Azimuth Distance (km) Brightness Sun altitude
Rises 05:12:47 0° 22° (NNE) 2,553 10.5 -10.9°
Reaches altitude 10° 05:15:01 10° 33° (NNE) 1,677 9.7 -10.5°
Maximum altitude 05:18:14 30° 96° (E) 900 8.8 -9.9°
Drops below altitude 10° 05:21:29 10° 160° (SSE) 1,688 9.6 -9.4°
Sets 05:23:44 0° 171° (S) 2,573 10.4 -9.0°
